Location: San Martino di Castrozza
(46.2667°N, 11.8000°E)
Time: 06:29:37
(UTC+00:00)

Resurs 1-4 Rocket - Pass Details

Date: 23 April 2021
Orbit: 799 x 815 km, 98.6° (Epoch: 07 May)

Event Time Altitude Azimuth Distance (km) Brightness Sun altitude
Rises 00:04:16 0° 22° (NNE) 3,322 6.5 -30.0°
Reaches altitude 10° 00:06:50 10° 32° (NNE) 2,385 5.4 -29.9°
Enters shadow 00:11:25 33° 92° (E) 1,315 3.2 -29.7°
